Regional Weather Roundup
Issued by NWS Glasgow, MT

Home | Current Version | Previous Version | Text Only | Print | Product List | Glossary On
Versions: 1 2 3 4 5 6 7 8 9 10 11 12 13 14 15 16 17 18 19 20 21 22 23 24 25 26 27
000
ASUS45 KGGW 122315
RWRGGW
HOURLY REGIONAL WEATHER ROUNDUP FOR NORTHEAST MONTANA
NATIONAL WEATHER SERVICE GLASGOW MONTANA
400 PM MST TUE DEC 12 2017

NOTE: "FAIR" INDICATES FEW OR NO CLOUDS BELOW 12,000 FEET WITH NO
SIGNIFICANT WEATHER AND/OR OBSTRUCTIONS TO VISISBILITY.

NORTHEAST MONTANA


CITY           SKY/WX    TMP DP  RH WIND       PRES   REMARKS
GLASGOW        CLOUDY    54  10  17 NW21G29   29.85R
PLENTYWOOD       N/A     47  16  29 W9G23       N/A
WOLF POINT     CLOUDY    53  14  21 W22G31    29.78F
JORDAN           N/A     55   6  14 NW17G26   29.90S
WINNETT          N/A     61   3  10 W24G41      N/A
SIDNEY         NOT AVBL
GLENDIVE       CLOUDY    47  16  29 W10       29.84F

FORT PECK REPORTS


CITY           SKY/WX    TMP DP  RH WIND       PRES   REMARKS
FORT PECK        N/A     55  16  21 W22G35      N/A
THE PINES        N/A     57   6  13 W14G24      N/A

SOUTHEAST MONTANA


CITY           SKY/WX    TMP DP  RH WIND       PRES   REMARKS
BILLINGS       CLOUDY    55  14  19 W14       30.08R
MILES CITY     CLOUDY    54  17  23 W12       29.92R
BAKER          CLOUDY    48  22  35 W17       29.87F
LIVINGSTON     CLOUDY    52   9  17 W25G31    30.19S

CENTRAL MONTANA


CITY           SKY/WX    TMP DP  RH WIND       PRES   REMARKS
HAVRE          CLOUDY    53   8  16 W16       30.06R
LEWISTOWN      CLOUDY    49  10  20 W14       30.09S
GREAT FALLS    CLOUDY    49   3  15 SW21      30.17R
CUT BANK       CLOUDY    47   6  18 W24       30.12R
HELENA         CLOUDY    24  20  84 E3        30.31R
BUTTE          CLOUDY    29  16  58 CALM      30.32R
BOZEMAN        CLOUDY    29  21  72 N6        30.28S

WESTERN MONTANA


CITY           SKY/WX    TMP DP  RH WIND       PRES   REMARKS
MISSOULA       MOCLDY    19  16  88 CALM      30.44S FOG
KALISPELL      NOT AVBL

NORTH DAKOTA


CITY           SKY/WX    TMP DP  RH WIND       PRES   REMARKS
WILLISTON      CLOUDY    49  14  24 W18G26    29.71F
DICKINSON      CLOUDY    48  22  35 W20       29.76F
MINOT          CLOUDY    47  23  38 SW16      29.64F
BISMARCK       CLEAR     49  25  39 W12       29.73F

SOUTHERN SASKATCHEWAN


CITY           SKY/WX    TMP DP  RH WIND       PRES   REMARKS
REGINA         MOCLDY    37  28  70 W17       29.66R
MOOSE JAW      MOCLDY    43  30  61 NW20G25   29.71R
ESTEVAN        CLOUDY    41  28  60 SW10      29.62F
SWIFT CURRENT  PTCLDY    41  28  60 W16G22    29.85R





USA.gov is the U.S. government's official web portal to all federal, state and local government web resources and services.